EDT,Max TemperatureF,Mean TemperatureF,Min TemperatureF,Max Dew PointF,MeanDew PointF,Min DewpointF,Max Humidity, Mean Humidity, Min Humidity, Max Sea Level PressureIn, Mean Sea Level PressureIn, Min Sea Level PressureIn, Max VisibilityMiles, Mean VisibilityMiles, Min VisibilityMiles, Max Wind SpeedMPH, Mean Wind SpeedMPH, Max Gust SpeedMPH,PrecipitationIn, CloudCover, Events, WindDirDegrees
2013-3-1,53,46,40,39,35,32,76,64,53,30.01,29.96,29.90,10,10,10,12,7,16,0.00,0,,308
2013-3-2,48,40,33,36,34,32,99,75,60,29.99,29.95,29.91,10,10,10,16,5,22,0.00,4,,288
2013-3-3,46,40,35,32,30,27,87,67,52,30.08,30.01,29.95,10,10,10,14,8,20,0.00,4,,296
2013-3-4,60,44,29,42,32,26,94,64,32,30.22,30.14,30.07,10,10,10,10,3,,0.00,0,,296
2013-3-5,68,54,39,60,47,39,98,73,46,30.13,29.98,29.75,10,10,3,21,4,30,0.00,4,Rain,225
2013-3-6,52,48,39,48,33,28,79,61,49,30.14,29.98,29.81,10,10,10,29,18,39,0.00,2,,307
2013-3-7,61,46,31,42,36,31,99,73,40,30.27,30.20,30.15,10,10,7,12,3,,0.00,0,,325
2013-3-8,64,50,37,44,36,33,100,66,33,30.30,30.25,30.18,10,10,5,12,3,16,0.00,0,,32
2013-3-9,67,51,35,48,38,32,99,65,33,30.36,30.28,30.24,10,10,10,10,2,,0.00,0,,81
2013-3-10,72,56,41,55,49,41,100,77,50,30.30,30.22,30.17,10,10,7,12,2,16,0.00,0,,138
2013-3-11,74,60,46,60,54,45,98,75,55,30.20,30.03,29.88,10,10,10,12,4,18,0.00,2,,158
2013-3-12,70,62,55,64,55,40,100,76,43,30.02,29.89,29.83,10,9,2,15,6,20,0.00,4,Rain,268
2013-3-13,66,54,42,41,35,28,86,48,29,30.17,30.11,30.03,10,10,10,23,9,31,0.00,0,,315
2013-3-14,57,47,37,40,30,26,97,54,32,30.35,30.25,30.18,10,10,10,13,7,21,0.00,0,,336
2013-3-15,73,54,35,43,38,29,99,61,32,30.27,30.17,30.06,10,10,7,12,2,20,0.00,0,,254
2013-3-16,79,67,55,49,46,43,69,48,30,30.08,30.01,29.92,10,10,10,21,8,28,0.00,0,,255
2013-3-17,75,66,56,60,56,49,94,68,49,30.07,30.02,29.97,10,10,10,13,6,23,0.00,2,,250
2013-3-18,73,66,58,65,62,58,100,89,72,30.07,29.99,29.81,10,8,2,10,3,,0.00,7,Rain,182
2013-3-19,75,65,55,61,45,34,100,48,25,30.04,29.98,29.94,10,10,10,16,10,22,0.00,0,,317
2013-3-20,63,52,42,47,36,30,88,52,29,30.13,30.00,29.88,10,10,10,12,4,17,0.00,1,,21
2013-3-21,58,48,38,39,30,22,84,50,25,29.97,29.90,29.86,10,10,10,20,9,28,0.00,0,,309
2013-3-22,56,46,36,49,34,28,100,66,39,30.11,30.05,29.96,10,10,10,8,1,,0.00,5,Rain,86
2013-3-23,61,53,45,57,50,45,100,93,83,30.06,29.96,29.86,10,8,1,16,3,23,0.00,7,Rain-Thunderstorm,92
2013-3-24,60,56,51,60,55,52,100,100,97,29.86,29.62,29.53,10,7,2,15,7,22,0.00,8,Rain-Thunderstorm,42
2013-3-25,57,50,42,53,36,28,100,60,35,30.04,29.82,29.64,10,10,4,26,12,37,0.00,2,,302
2013-3-26,50,43,36,33,31,27,75,61,47,30.24,30.11,30.04,10,10,10,21,11,30,0.00,2,,298
2013-3-27,59,46,33,40,34,31,95,66,37,30.32,30.26,30.21,10,10,10,13,5,20,0.00,0,,318
2013-3-28,64,50,37,43,35,31,98,64,30,30.35,30.27,30.21,10,10,10,13,3,18,0.00,0,,347
2013-3-29,68,52,37,48,38,32,99,61,29,30.36,30.28,30.22,10,10,10,9,2,,0.00,0,,148
2013-3-30,77,64,52,51,49,47,91,64,35,30.25,30.16,30.07,10,10,10,10,2,18,0.00,3,,235
2013-3-31,79,68,57,65,58,50,97,75,52,30.09,30.00,29.91,10,10,5,14,5,22,0.00,5,Rain-Thunderstorm,227